Location: Unspecified
(0.0000°N, 0.0000°E)
Time: 17:56:15
(UTC+00:00)

Vanguard 2 Rocket - Pass Details

Date: 19 December 2018
Orbit: 554 x 3326 km, 32.9° (Epoch: 17 June)

Event Time Altitude Azimuth Distance (km) Brightness Sun altitude
Rises 13:59:50 0° 288° (WNW) 4,408 10.7 52.1°
Reaches altitude 10° 14:02:23 10° 282° (WNW) 3,729 10.5 51.6°
Maximum altitude 14:12:24 52° 209° (SSW) 2,658 11.3 49.7°
Drops below altitude 10° 14:29:11 10° 138° (SE) 5,984 11.1 46.3°
Sets 14:34:40 0° 133° (SE) 7,209 11.4 45.2°
